Date String (YYYY-MM-DD hh:mm:ss) UTC,Instrument flags,Ambient pressure (hPa),Sample flow (lpm),Bypass flow (lpm),Sample temperature (°C),Ambient temperature (°C),ASC tube jacket temperature (°C),LED temperature (°C),Box temperature (°C),Sample RH (%),Span deviation,Mass concentration (μg/m³),Mass concentration (μg/m³),Mass concentration (μg/m³)
DateTimeUTC,F1_M11,P_M11,Q1_M11,Q2_M11,T1_M11,T2_M11,T3_M11,T4_M11,T5_M11,U1_M11,ZSPAN_M11,X0_M11,X2_M11,X1_M11
2022-04-07 21:00:00,,0831.6,5.01,0.00,25.8,25.1,00.0,34.7,27.6,05.3,0000.0,0007.59,0002.11,0001.17
2022-04-07 21:01:00,,0831.6,5.01,0.00,25.8,25.0,00.0,34.7,27.6,05.5,0000.0,0007.41,0002.10,0001.17
2022-04-07 21:02:00,,0831.6,5.01,0.00,25.8,25.0,00.0,34.7,27.6,05.5,0000.0,0007.90,0002.11,0001.18
2022-04-07 21:03:00,,0831.7,5.00,0.00,25.8,25.0,00.0,34.7,27.5,05.6,0000.0,0008.20,0002.13,0001.18
2022-04-07 21:04:00,,0831.6,5.00,0.00,25.7,24.9,00.0,34.7,27.5,05.5,0000.0,0008.72,0002.15,0001.20
2022-04-07 21:05:00,,0831.7,5.01,0.00,25.7,24.9,00.0,34.7,27.4,05.6,0000.0,0009.25,0002.16,0001.23
2022-04-07 21:06:00,,0831.6,5.00,0.00,25.7,24.9,00.0,34.7,27.4,05.3,0000.0,0009.42,0002.22,0001.24
2022-04-07 21:07:00,,0831.6,5.00,0.00,25.7,24.9,00.0,34.7,27.4,05.4,0000.0,0009.10,0002.18,0001.24
2022-04-07 21:08:00,,0831.6,4.99,0.00,25.7,24.9,00.0,34.7,27.4,05.3,0000.0,0008.48,0002.18,0001.24
2022-04-07 21:09:00,,0831.6,5.00,0.00,25.7,24.9,00.0,34.7,27.5,05.5,0000.0,0008.77,0002.16,0001.25
2022-04-07 21:10:00,,0831.6,5.01,0.00,25.7,25.0,00.0,34.7,27.6,05.6,0000.0,0008.79,0002.15,0001.24
2022-04-07 21:11:00,,0831.6,5.00,0.00,25.8,25.1,00.0,34.7,27.6,05.6,0000.0,0008.36,0002.10,0001.21
2022-04-07 21:12:00,,0831.7,5.00,0.00,25.8,25.1,00.0,34.7,27.7,05.6,0000.0,0008.08,0002.16,0001.21
2022-04-07 21:13:00,,0831.6,5.00,0.00,25.8,25.1,00.0,34.7,27.7,05.4,0000.0,0007.88,0002.15,0001.20
2022-04-07 21:14:00,,0831.5,4.99,0.00,25.8,25.2,00.0,34.7,27.7,04.7,0000.0,0007.77,0002.13,0001.20
2022-04-07 21:15:00,,0831.5,5.00,0.00,25.9,25.2,00.0,34.7,27.7,03.8,0000.0,0007.14,0002.07,0001.17
2022-04-07 21:16:00,,0831.4,5.01,0.00,25.9,25.2,00.0,34.7,27.8,03.5,0000.0,0005.99,0002.01,0001.12
2022-04-07 21:17:00,,0831.3,4.99,0.00,25.9,25.3,00.0,34.7,27.8,03.5,0000.0,0005.52,0001.88,0001.08
2022-04-07 21:18:00,,0831.4,5.00,0.00,26.0,25.3,00.0,34.7,27.8,03.5,0000.0,0005.97,0001.83,0001.06
2022-04-07 21:19:00,,0831.4,5.00,0.00,26.0,25.3,00.0,34.8,27.8,03.4,0000.0,0006.01,0001.71,0001.03
2022-04-07 21:20:00,,0831.4,4.99,0.00,26.0,25.3,00.0,34.8,27.9,03.6,0000.0,0005.41,0001.67,0000.99
2022-04-07 21:21:00,,0831.4,5.00,0.00,26.0,25.3,00.0,34.8,27.8,03.5,0000.0,0005.31,0001.67,0000.97
2022-04-07 21:22:00,,0831.4,5.01,0.00,26.0,25.3,00.0,34.8,27.9,03.5,0000.0,0005.35,0001.59,0000.95
2022-04-07 21:23:00,,0831.3,5.00,0.00,26.0,25.3,00.0,34.8,27.9,03.6,0000.0,0005.38,0001.51,0000.93
2022-04-07 21:24:00,,0831.1,5.00,0.00,26.0,25.3,00.0,34.8,27.9,03.6,0000.0,0005.38,0001.43,0000.90
2022-04-07 21:25:00,,0831.2,5.00,0.00,26.0,25.3,00.0,34.8,27.9,03.4,0000.0,0004.88,0001.43,0000.89
2022-04-07 21:26:00,,0831.1,5.00,0.00,26.0,25.3,00.0,34.9,27.9,03.4,0000.0,0004.80,0001.39,0000.88
2022-04-07 21:27:00,,0831.1,5.00,0.00,26.0,25.3,00.0,34.9,27.9,03.6,0000.0,0004.88,0001.41,0000.88
2022-04-07 21:28:00,,0831.0,5.01,0.00,26.1,25.3,00.0,34.9,27.9,03.6,0000.0,0005.24,0001.45,0000.88
2022-04-07 21:29:00,,0831.1,5.00,0.00,26.0,25.3,00.0,34.9,27.9,03.6,0000.0,0007.37,0001.60,0000.88
2022-04-07 21:30:00,,0831.2,4.99,0.00,26.0,25.3,00.0,34.9,27.8,03.6,0000.0,0007.61,0001.67,0000.89
2022-04-07 21:31:00,,0831.1,5.00,0.00,26.0,25.3,00.0,34.9,27.8,03.6,0000.0,0007.60,0001.68,0000.89
2022-04-07 21:32:00,,0831.2,5.00,0.00,26.0,25.3,00.0,34.9,27.8,03.4,0000.0,0007.58,0001.67,0000.89
2022-04-07 21:33:00,,0831.1,5.00,0.00,26.0,25.3,00.0,34.9,27.8,03.6,0000.0,0007.39,0001.68,0000.90
2022-04-07 21:34:00,,0831.1,5.00,0.00,26.0,25.3,00.0,34.9,27.8,03.6,0000.0,0007.24,0001.65,0000.90
2022-04-07 21:35:00,,0831.1,5.01,0.00,26.0,25.3,00.0,34.9,27.8,03.7,0000.0,0006.81,0001.64,0000.89
2022-04-07 21:36:00,,0831.1,5.00,0.00,26.0,25.3,00.0,34.9,27.9,03.6,0000.0,0007.50,0001.58,0000.88
2022-04-07 21:37:00,,0831.1,5.01,0.00,26.0,25.3,00.0,34.9,27.8,03.5,0000.0,0007.67,0001.61,0000.88
2022-04-07 21:38:00,,0831.2,5.00,0.00,26.0,25.3,00.0,34.9,27.8,03.5,0000.0,0007.64,0001.58,0000.87
2022-04-07 21:39:00,,0831.2,4.99,0.00,26.0,25.3,00.0,34.9,27.8,03.4,0000.0,0007.34,0001.55,0000.87
2022-04-07 21:40:00,,0831.1,4.99,0.00,26.0,25.3,00.0,34.9,27.8,03.4,0000.0,0004.67,0001.43,0000.86
2022-04-07 21:41:00,,0831.1,5.01,0.00,26.0,25.3,00.0,34.9,27.8,03.4,0000.0,0004.80,0001.42,0000.85
2022-04-07 21:42:00,,0831.0,5.00,0.00,26.1,25.3,00.0,34.9,27.8,03.5,0000.0,0004.85,0001.38,0000.84
2022-04-07 21:43:00,,0831.0,4.99,0.00,26.1,25.3,00.0,35.0,27.9,03.4,0000.0,0004.78,0001.34,0000.83
2022-04-07 21:44:00,,0831.1,5.01,0.00,26.1,25.3,00.0,35.0,27.8,03.4,0000.0,0004.72,0001.31,0000.81
2022-04-07 21:45:00,,0831.2,4.98,0.00,26.1,25.3,00.0,35.0,27.8,03.4,0000.0,0004.64,0001.35,0000.81
2022-04-07 21:46:00,,0831.0,5.00,0.00,26.1,25.3,00.0,35.0,27.8,03.7,0000.0,0006.05,0001.51,0000.81
2022-04-07 21:47:00,,0831.1,4.99,0.00,26.1,25.4,00.0,35.0,27.9,03.7,0000.0,0007.83,0001.86,0000.85
2022-04-07 21:48:00,,0831.1,5.01,0.00,26.1,25.4,00.0,35.0,27.9,03.6,0000.0,0008.23,0002.10,0000.89
2022-04-07 21:49:00,,0831.0,5.00,0.00,26.1,25.4,00.0,35.0,27.9,03.6,0000.0,0008.31,0002.15,0000.90
2022-04-07 21:50:00,,0831.0,4.99,0.00,26.1,25.4,00.0,35.0,27.9,03.6,0000.0,0008.32,0002.16,0000.91
2022-04-07 21:51:00,,0831.0,5.01,0.00,26.1,25.4,00.0,35.0,27.9,03.6,0000.0,0008.29,0002.13,0000.91
2022-04-07 21:52:00,,0831.0,5.01,0.00,26.1,25.4,00.0,35.0,27.9,03.5,0000.0,0007.93,0002.07,0000.90
2022-04-07 21:53:00,,0831.0,5.00,0.00,26.1,25.4,00.0,35.0,27.9,03.5,0000.0,0007.84,0002.07,0000.89
2022-04-07 21:54:00,,0831.1,4.99,0.00,26.1,25.4,00.0,35.0,27.9,03.5,0000.0,0007.93,0002.12,0000.89
2022-04-07 21:55:00,,0831.2,5.01,0.00,26.1,25.4,00.0,35.0,27.9,03.6,0000.0,0008.00,0002.15,0000.89
2022-04-07 21:56:00,,0831.0,5.00,0.00,26.2,25.4,00.0,35.0,27.9,03.8,0000.0,0009.73,0002.25,0000.88
2022-04-07 21:57:00,,0831.0,5.00,0.00,26.2,25.4,00.0,35.0,27.9,03.8,0000.0,0009.80,0002.22,0000.89
2022-04-07 21:58:00,,0830.9,5.00,0.00,26.2,25.4,00.0,35.1,28.0,03.8,0000.0,0007.94,0001.96,0000.85
2022-04-07 21:59:00,,0831.0,4.99,0.00,26.2,25.5,00.0,35.1,28.0,03.5,0000.0,0007.41,0001.73,0000.82
